Das Wetter in  D-61279 Heinzenberg / Taunus





Wetter Minimum- & Maximum-Werte im September 2012

Standort: Heinzenberg / Taunus - Höhe 297 m         8 24' 1" Ost 50 21' 51" Nord
(   3-stündige Aktualisierung    letzte Aktualisierung um 19:04 am 30.09.2012  )


Messgrösse

Minimum

Maximum

Durchschnitt

Temperatur West /
Luftfeuchte West
Anklicken für Monats-Diagramm

1,9 C

07:08
20.09.2012

28 %

17:17
09.09.2012

30,2 C

17:22
09.09.2012

99 %

15:26
13.09.2012

Temp

13,4 C

Feuchte

77 %

Temperatur Ost /
Luftfeuchte Ost
Anklicken für Monats-Diagramm

2,6 C

08:09
21.09.2012

--

--
--

29,8 C

17:08
10.09.2012

--

--
--

13,6 C

--

Luftdruck Anklicken für Monats-Diagramm

994,9 hPa

15:52
24.09.2012

1028,8 hPa

10:50
06.09.2012

1016,8 hPa

Taupunkt

-0,4 C

07:22
30.09.2012

17,7 C

15:19
11.09.2012

9,0 C

Windchill
( gefühlte Temperatur )

-0,1 C

04:50
27.09.2012

29,6 C

17:37
09.09.2012

12,1 C

Windgeschwindigkeit /
Windrichtung
Anklicken für Monats-Diagramm

---

71,8 km/h / SW

16:42
24.09.2012

6,1 km/h
SW

Helligkeit /
Sonnenschein
Anklicken für Monats-Diagramm
Anklicken für Monats-Diagramm

Sonnenschein:

161:57 Stunden

Max: 11:25 Std am
08.09.2012

95 klux

13:27
24.09.2012

27,1 klux

Solarstrahlung Anklicken für Monats-Diagramm

---

648 W/m

13:27
24.09.2012

200 W/m

Regenmenge
    September 2012
Anklicken für Monats-Diagramm

Insgesamt 37,7 l/m

in 35:00 Stunden
an 13 Tagen

7,3 l/m

09:17
24.09.2012

Gesamtmenge

37,7 l/m

Regen-Tage
    September 2012
Anklicken für Monats-Diagramm

>   0 mm/Tag

>   2 mm/Tag

>   5 mm/Tag

> 10 mm/Tag

> 20 mm/Tag

13 Tage     
6 Tage     
4 Tage     
0 Tage     
0 Tage     

Eisige Tage September 2012 / 2011

Tmin ≤ -10C     

0 Tage

/

0 Tage

Eistage September 2012 / 2011

Tmax <     0C     

0 Tage

/

0 Tage

Frosttage September 2012 / 2011

Tmin ≤     0C     

0 Tage

/

0 Tage

Kalte Tage September 2012 / 2011

Tmax <   10C     

0 Tage

/

0 Tage

Warme Tage September 2012 / 2011

Tmax ≥   20C     

14 Tage

/

21 Tage

Sommertage September 2012 / 2011

Tmax ≥   25C     

5 Tage

/

7 Tage

Heisse Tage September 2012 / 2011

Tmax ≥   30C     

2 Tage

/

  1 Tag


Monatsdiagramm September 2012

Die Kurven zeigen den Durchschnittswert des jeweiligen Tages an


Wetter-Monatsübersicht September 2012
Datum
  Temperatur
   Luftdruck
   Wind
  Regen
   Luftfeuchte
   Helligkeit

Sonnen-
schein


Temp.

Min.
Temp.

Max.
Temp.


Luftdruck

Min.
Luftdruck

Max.
Luftdruck

-Geschw.
Haupt-Richtg.

Max.
Wind

Menge /
Dauer


Feuchte

Min.
Feuchte

Max.
Feuchte


Helligkeit

Max.
Helligkeit

1.
September
14,7 C10,3 C
23:52
21,3 C
18:41
1024,7 hPa1022,8 hPa
00:01
1027,2 hPa
23:52
2,9 km/h
N-NO
15,0 km/h
14:01  
0,2 l/m
5 Minuten
74 %49 %
14:16
90 %
08:21
30,1 klux92,9 klux
12:26
6:05 Std 
2.
September
14,8 C6,4 C
07:17
24,0 C
17:27
1025,1 hPa1022,4 hPa
17:27
1027,4 hPa
02:22
1,7 km/h
W-NW
13,6 km/h
17:32  
---
72 %44 %
17:22
94 %
08:47
39,0 klux86,8 klux
13:02
7:55 Std 
3.
September
16,9 C9,1 C
07:08
25,4 C
17:43
1023,8 hPa1021,2 hPa
17:43
1026,3 hPa
07:08
2,1 km/h
N-NO
14,2 km/h
12:23  
---
69 %40 %
13:53
93 %
08:58
38,9 klux69,9 klux
13:23
10:05 Std 
4.
September
16,7 C9,7 C
07:13
25,4 C
17:03
1022,1 hPa1019,2 hPa
17:03
1024,6 hPa
00:28
2,0 km/h
N-NO
15,6 km/h
12:03  
---
73 %42 %
16:43
93 %
08:33
36,4 klux72,8 klux
13:28
8:36 Std 
5.
September
14,8 C11,0 C
04:54
19,0 C
13:34
1021,4 hPa1020,6 hPa
00:09
1024,9 hPa
23:55
1,4 km/h
W-NW
13,0 km/h
20:19  
---
83 %66 %
20:19
93 %
08:49
11,0 klux28,6 klux
12:59
--- 
6.
September
13,4 C8,3 C
02:55
21,0 C
17:40
1026,7 hPa1024,9 hPa
18:25
1028,8 hPa
10:50
2,0 km/h
W
15,6 km/h
16:40  
---
71 %43 %
17:40
92 %
07:20
31,9 klux86,9 klux
13:05
6:30 Std 
7.
September
14,3 C5,2 C
07:25
24,7 C
17:30
1025,0 hPa1022,4 hPa
17:30
1026,8 hPa
07:25
5,1 km/h
W
25,8 km/h
16:25  
---
66 %30 %
16:10
93 %
08:55
38,7 klux68,6 klux
13:00
10:45 Std 
8.
September
17,6 C9,8 C
07:06
28,4 C
17:46
1021,7 hPa1017,8 hPa
17:46
1024,9 hPa
00:51
2,8 km/h
W
17,6 km/h
13:16  
---
63 %29 %
16:01
91 %
08:46
38,9 klux68,4 klux
13:41
11:25 Std 
9.
September
19,4 C10,4 C
06:52
30,2 C
17:22
1016,2 hPa1011,6 hPa
18:57
1019,7 hPa
02:47
6,3 km/h
SW
28,6 km/h
12:47  
---
62 %28 %
17:17
91 %
07:52
38,8 klux68,2 klux
12:57
10:55 Std 
10.
September
20,5 C11,6 C
06:48
30,2 C
17:08
1014,7 hPa1012,7 hPa
19:03
1016,3 hPa
09:08
4,8 km/h
SW
25,5 km/h
15:08  
---
60 %29 %
17:38
88 %
06:58
35,6 klux70,7 klux
12:18
9:10 Std 
11.
September
16,7 C12,7 C
22:45
21,3 C
15:19
1013,0 hPa1010,3 hPa
15:59
1015,0 hPa
00:59
5,7 km/h
W-SW
35,1 km/h
18:54  
7,1 l/m
4:25 Stunden
84 %66 %
00:04
96 %
22:55
13,3 klux60,2 klux
14:14
30 Min 
12.
September
11,0 C6,8 C
23:56
13,2 C
13:15
1014,3 hPa1013,4 hPa
13:30
1015,2 hPa
23:56
3,9 km/h
W-SW
39,1 km/h
14:30  
4,4 l/m
3:35 Stunden
93 %86 %
13:50
96 %
00:00
13,2 klux40,7 klux
12:55
21 Min 
13.
September
9,6 C3,5 C
06:21
16,2 C
14:46
1016,9 hPa1015,2 hPa
00:01
1019,9 hPa
23:52
2,7 km/h
W
17,4 km/h
16:51  
0,2 l/m
19 Minuten
88 %66 %
14:41
99 %
15:26
21,2 klux93,9 klux
14:31
1:20 Std 
14.
September
12,5 C6,6 C
05:37
18,6 C
16:07
1015,3 hPa1011,7 hPa
16:07
1020,0 hPa
00:17
15,8 km/h
W-SW
43,3 km/h
11:47  
0,8 l/m
1:15 Stunden
81 %55 %
15:57
99 %
09:27
34,1 klux80,2 klux
13:02
7:30 Std 
15.
September
12,6 C9,1 C
23:59
16,9 C
17:13
1017,9 hPa1014,5 hPa
00:03
1020,1 hPa
23:59
3,7 km/h
W
19,2 km/h
15:13  
0,3 l/m
1:25 Stunden
87 %67 %
17:18
98 %
08:48
16,4 klux42,4 klux
17:03
5 Min 
16.
September
13,3 C6,2 C
07:24
23,3 C
17:14
1016,8 hPa1013,2 hPa
17:14
1020,3 hPa
02:29
3,6 km/h
SW
19,6 km/h
15:54  
---
77 %47 %
17:09
99 %
21:24
35,9 klux65,1 klux
12:24
10:00 Std 
17.
September
15,0 C8,5 C
05:30
24,7 C
18:10
1014,0 hPa1012,0 hPa
18:10
1015,7 hPa
09:40
4,1 km/h
W
25,6 km/h
13:45  
---
77 %47 %
17:30
95 %
08:25
34,1 klux71,2 klux
14:05
8:45 Std 
18.
September
14,1 C8,6 C
07:31
20,6 C
13:31
1012,5 hPa1010,4 hPa
13:31
1014,5 hPa
00:16
7,3 km/h
W-NW
31,6 km/h
17:11  
---
80 %62 %
12:36
99 %
09:41
24,4 klux81,7 klux
12:26
4:20 Std 
19.
September
10,6 C5,9 C
08:02
16,5 C
15:47
1019,0 hPa1014,5 hPa
00:02
1023,5 hPa
23:58
8,8 km/h
W
32,5 km/h
15:27  
---
20 Minuten
71 %39 %
15:52
93 %
08:57
31,4 klux74,1 klux
12:47
6:50 Std 
20.
September
8,8 C1,9 C
07:08
16,6 C
16:58
1024,0 hPa1021,4 hPa
18:13
1026,0 hPa
09:03
3,0 km/h
W-SW
22,5 km/h
13:18  
---
72 %46 %
17:08
94 %
09:13
28,7 klux70,5 klux
13:28
5:30 Std 
21.
September
9,8 C2,2 C
07:59
18,3 C
16:24
1017,5 hPa1011,5 hPa
23:15
1023,8 hPa
00:34
2,4 km/h
O-SO
21,2 km/h
14:44  
5,5 l/m
3:26 Stunden
76 %44 %
15:49
93 %
08:54
24,4 klux54,3 klux
12:29
1:35 Std 
22.
September
10,7 C5,5 C
23:56
16,4 C
17:55
1015,6 hPa1010,5 hPa
00:40
1021,6 hPa
23:56
6,8 km/h
W
30,3 km/h
11:05  
0,3 l/m
40 Minuten
83 %53 %
16:30
96 %
06:55
22,2 klux73,2 klux
14:30
5:00 Std 
23.
September
10,3 C4,7 C
06:26
17,4 C
16:21
1015,3 hPa1005,1 hPa
23:52
1021,6 hPa
01:01
3,7 km/h
O-SO
20,0 km/h
15:46  
---
77 %53 %
16:16
95 %
08:56
21,8 klux74,8 klux
12:31
1:45 Std 
24.
September
14,4 C11,2 C
07:12
20,8 C
15:52
999,8 hPa994,9 hPa
15:52
1005,1 hPa
00:02
17,9 km/h
SW
71,8 km/h
16:42  
7,3 l/m
1:30 Stunden
83 %71 %
15:52
96 %
17:02
20,9 klux94,7 klux
13:27
2:25 Std 
25.
September
12,6 C11,4 C
23:09
13,5 C
03:13
1001,6 hPa999,9 hPa
05:43
1003,2 hPa
20:28
16,7 km/h
SW
38,7 km/h
06:48  
2,4 l/m
3:55 Stunden
84 %72 %
00:03
93 %
13:08
8,2 klux26,2 klux
16:38
--- 
26.
September
12,0 C10,3 C
23:50
15,6 C
13:19
1002,3 hPa999,1 hPa
06:39
1005,4 hPa
23:50
8,2 km/h
SW
32,5 km/h
07:54  
7,3 l/m
10:30 Stunden
93 %83 %
13:19
99 %
12:19
12,7 klux67,5 klux
12:49
40 Min 
27.
September
11,6 C9,7 C
09:45
15,7 C
15:00
1008,0 hPa1004,4 hPa
00:00
1013,6 hPa
23:01
20,3 km/h
SW
40,1 km/h
16:05  
2,0 l/m
3:35 Stunden
88 %71 %
14:10
96 %
04:15
27,5 klux83,6 klux
14:20
4:45 Std 
28.
September
11,9 C8,0 C
23:51
16,7 C
18:21
1017,6 hPa1013,6 hPa
00:01
1019,0 hPa
08:01
9,9 km/h
W-SW
28,5 km/h
10:31  
---
83 %62 %
14:51
93 %
06:36
24,8 klux71,1 klux
14:01
5:00 Std 
29.
September
11,3 C7,4 C
01:11
16,1 C
17:36
1017,4 hPa1015,8 hPa
06:16
1021,3 hPa
23:52
6,4 km/h
W
27,6 km/h
13:21  
---
78 %44 %
14:31
96 %
05:11
23,1 klux80,9 klux
14:56
4:10 Std 
30.
September
9,1 C2,7 C
07:22
17,7 C
17:22
1022,4 hPa1020,1 hPa
17:22
1025,0 hPa
08:47
1,8 km/h
W
17,1 km/h
13:47  
---
71 %53 %
16:52
84 %
10:52
35,5 klux65,4 klux
13:17
10:00 Std 



September
2012

Temperatur

  

Luftdruck

  

Wind

  

Regen

  

Luftfeuchte

  

Helligkeit

Sonnen-
schein

Min

Max

Min

Max

Max

Max

Min

Max

Max

Max

13,4 C

1,9 C

07:08 Uhr
20.09.2012

30,2 C

17:22 Uhr
09.09.2012

1016,8 hPa

994,9 hPa

15:52 Uhr
24.09.2012

1028,8 hPa

10:50 Uhr
06.09.2012

6,1 km/h

SW

71,8 km/h

16:42 Uhr
24.09.2012

7,3 l/m

1:30 Stunden
24.09.2012

77 %

28 %

17:17 Uhr
09.09.2012

99 %

15:26 Uhr
13.09.2012

27,1 klux

94,7 klux

13:27 Uhr
24.09.2012

11:25 Std

am
08.09.2012

Gesamt

Gesamt

37,7 l/m

13 Tage
35:00 h

161:57 Std


Wetter-Diagramme September 2012     Heinzenberg / Taunus   
TemperaturLuftfeuchte
SolarstrahlungLuftdruck
HelligkeitSonnenschein
RegenmengeRegendauer
Wind-GeschwindigkeitWind-Richtung